DW7346 Weather Reports


Display with metric or nautical units.
time (UTC)temp
F
wind
direction
speed
MPH
gust
MPH
rain 1hr
in
rain 24hr
in
rain mn
in
humidity
%
barometer
mb
20260505213023 90 244 4.0 8.0 0.00 0.00 0.00 54 1000.8
20260505211515 90 261 4.0 9.0 0.00 0.00 0.00 56 1000.9
20260505210011 89 264 3.0 9.0 0.00 0.00 0.00 57 1001.1
20260505204516 89 245 3.0 10.0 0.00 0.00 0.00 59 1001.2
20260505203009 89 269 4.0 8.0 0.00 0.00 0.00 60 1001.4
20260505201505 88 329 3.0 13.0 0.00 0.00 0.00 61 1001.6
20260505194600 86 267 5.0 10.0 0.00 0.00 0.00 67 1001.7
20260505193056 86 252 5.0 10.0 0.00 0.00 0.00 68 1002.0
20260505191558 85 221 5.0 13.0 0.00 0.00 0.00 68 1001.8
20260505190107 84 216 6.0 12.0 0.00 0.00 0.00 69 1001.8
20260505184600 83 220 4.0 10.0 0.00 0.00 0.00 74 1001.8
20260505183051 82 193 5.0 13.0 0.00 0.00 0.00 72 1002.1
20260505181546 82 239 7.0 14.0 0.00 0.00 0.00 72 1001.9
20260505180049 82 240 5.0 11.0 0.00 0.00 0.00 74 1002.1
20260505174543 82 20 5.0 11.0 0.00 0.00 0.00 73 1002.0
20260505173042 81 174 6.0 14.0 0.00 0.00 0.00 73 1002.0
20260505171541 80 186 6.0 14.0 0.00 0.00 0.00 75 1002.0
20260505170034 80 198 6.0 15.0 0.00 0.00 0.00 76 1002.2
20260505164536 79 170 4.0 12.0 0.00 0.00 0.00 77 1002.1
20260505163031 79 252 4.0 12.0 0.00 0.00 0.00 78 1002.0
20260505161526 78 203 4.0 14.0 0.00 0.00 0.00 80 1001.9
20260505153027 76 213 5.0 12.0 0.00 0.00 0.00 81 1002.0
20260505151518 76 162 5.0 14.0 0.00 0.00 0.00 82 1001.8
20260505124508 71 199 5.0 12.0 0.00 0.00 0.00 89 1001.3
20260505123006 71 231 4.0 13.0 0.00 0.00 0.00 89 1001.2
20260505121507 70 175 4.0 13.0 0.00 0.00 0.00 89 1000.9
20260505120004 71 192 4.0 11.0 0.00 0.00 0.00 89 1000.9
20260505114504 71 237 4.0 11.0 0.00 0.00 0.00 89 1000.9
20260505113006 71 164 5.0 14.0 0.00 0.00 0.00 89 1000.7
20260505111505 71 200 6.0 14.0 0.00 0.00 0.00 89 1000.7
20260505101551 71 151 5.0 13.0 0.00 0.00 0.00 88 1000.7
20260505100049 71 183 7.0 16.0 0.00 0.00 0.00 87 1000.8
20260505094549 71 238 4.0 14.0 0.00 0.00 0.00 87 1000.8
20260505093048 71 182 6.0 16.0 0.00 0.00 0.00 87 1000.9
20260505091548 72 188 6.0 16.0 0.00 0.00 0.00 87 1001.0
20260505090050 72 231 4.0 14.0 0.00 0.00 0.00 86 1001.1
20260505084541 72 198 5.0 12.0 0.00 0.00 0.00 86 1001.2
20260505083037 72 122 4.0 11.0 0.00 0.00 0.00 85 1001.3
20260505081542 72 183 5.0 15.0 0.00 0.00 0.00 84 1001.2
20260505080046 72 217 5.0 17.0 0.00 0.00 0.00 83 1001.2
20260505074529 73 143 5.0 10.0 0.00 0.00 0.00 83 1001.5
20260505073032 73 214 2.0 11.0 0.00 0.00 0.00 82 1001.9
20260505071524 73 162 5.0 12.0 0.00 0.00 0.00 81 1002.0
20260505070023 73 220 3.0 13.0 0.00 0.00 0.00 80 1002.3
20260505064518 74 173 3.0 8.0 0.00 0.00 0.00 79 1002.5
20260505063016 74 271 4.0 13.0 0.00 0.00 0.00 78 1002.6
20260505061517 74 191 3.0 10.0 0.00 0.00 0.00 77 1002.6
20260505060017 75 241 4.0 11.0 0.00 0.00 0.00 77 1002.7
20260505054512 74 236 3.0 10.0 0.00 0.00 0.00 77 1002.6
20260505053016 74 259 3.0 9.0 0.00 0.00 0.00 78 1002.7
20260505051508 75 214 3.0 10.0 0.00 0.00 0.00 77 1002.7
20260505041502 75 148 4.0 9.0 0.00 0.00 0.00 76 1002.9
20260505040000 75 177 3.0 11.0 0.00 0.00 0.00 75 1003.0
20260505034502 75 206 3.0 11.0 0.00 0.00 0.00 75 1003.0
20260505033100 75 200 3.0 9.0 0.00 0.00 0.00 75 1002.9
20260505031601 75 176 4.0 11.0 0.00 0.00 0.00 75 1003.0
20260505030100 75 172 2.0 7.0 0.00 0.00 0.00 75 1003.1
20260505024558 75 202 2.0 9.0 0.00 0.00 0.00 74 1003.3
20260505023057 75 149 1.0 7.0 0.00 0.00 0.00 74 1003.1
20260505021557 76 171 1.0 10.0 0.00 0.00 0.00 73 1003.0
20260505020055 76 184 3.0 7.0 0.00 0.00 0.00 73 1002.9
20260505014611 76 128 3.0 9.0 0.00 0.00 0.00 72 1003.0
20260505013055 76 197 3.0 10.0 0.00 0.00 0.00 72 1002.9
20260505011603 77 195 4.0 11.0 0.00 0.00 0.00 71 1003.0
20260505010055 77 195 5.0 12.0 0.00 0.00 0.00 70 1003.0
20260505004553 77 221 6.0 17.0 0.00 0.00 0.00 70 1002.9
20260505003051 78 238 5.0 15.0 0.00 0.00 0.00 69 1002.9
20260505001603 78 199 4.0 10.0 0.00 0.00 0.00 68 1003.0
20260505000105 79 148 5.0 14.0 0.00 0.00 0.00 67 1003.2
20260504234605 79 184 3.0 8.0 0.00 0.00 0.00 67 1003.2
20260504233050 79 219 3.0 10.0 0.00 0.00 0.00 67 1003.5
20260504231545 80 224 3.0 13.0 0.00 0.00 0.00 66 1003.4
20260504230043 81 191 4.0 13.0 0.00 0.00 0.00 65 1003.5
20260504224555 82 278 3.0 16.0 0.00 0.00 0.00 64 1003.6
20260504223044 82 207 4.0 9.0 0.00 0.00 0.00 64 1003.7
20260504221540 81 169 3.0 11.0 0.00 0.00 0.00 65 1003.7
20260504220037 81 236 3.0 12.0 0.00 0.00 0.00 64 1003.9
20260504214535 81 184 3.0 10.0 0.00 0.00 0.00 64 1004.1